Weather History for KEQY - October, 2013

Change the Weather History Date:

Saturday, October 26, 2013

  Actual Average (KCLT) Record (KCLT)
Temperature  
Mean Temperature 44 °F 57 °F  
Max Temperature 60 °F 69 °F 86 °F (1940)
Min Temperature 28 °F 45 °F 27 °F (2013)
Degree Days  
Heating Degree Days 21 8  
Month to date heating degree days 138  
Since 1 July heating degree days 161  
Cooling Degree Days 0 1  
Month to date cooling degree days 39  
Year to date cooling degree days 1514  
Moisture  
Dew Point 29 °F    
Average Humidity 57    
Maximum Humidity 89    
Minimum Humidity 28    
Precipitation  
Precipitation 0.00 in 0.10 in 1.85 in (1981)
Month to date precipitation 2.91  
Year to date precipitation 34.75  
Snow  
Snow 0.00 in 0.00 in 0.00 in ()
Month to date snowfall 0.0  
Since 1 July snowfall 0.0  
Since 1 September snowfall 0.0  
Snow Depth -    
Sea Level Pressure  
Sea Level Pressure 30.28 in    
Wind  
Wind Speed 4 mph (WSW)    
Max Wind Speed 12 mph    
Max Gust Speed 21 mph    
Visibility 10 miles    
Events      
T = Trace of Precipitation, MM = Missing Value Source: NWS Daily Summary

Daily Weather History Graph

Daily Weather History Graph

Search for Another Location

Airport or City:

Trip Planner

Search our weather history database for the weather conditions in past years. The results will help you decide how hot, cold, wet, or windy it might be!

Date:

Astronomy

Oct. 26, 2013 Rise Set
Actual Time 7:38 AM EDT 6:34 PM EDT
Civil Twilight 7:12 AM EDT 7:00 PM EDT
Nautical Twilight 6:42 AM EDT 7:29 PM EDT
Astronomical Twilight 6:13 AM EDT 7:59 PM EDT
Moon No Moon Rise 1:51 PM EDT (10/26)
Length of Visible Light 11h 47m
Length of Day
10h 55m
Waning Gibbous, 53% of the Moon is Illuminated
Oct 26
Waning Gibbous
Oct 26
Last Quarter
Nov 3
New
Nov 10
First Quarter
Nov 17
Full

Hourly Weather History & Observations

Time (EDT) Temp. Windchill Dew Point Humidity Pressure Visibility Wind Dir Wind Speed Gust Speed Precip Events Conditions
12:53 AM 37.9 °F 34.4 °F 28.0 °F 68% 30.40 in 10.0 mi North 4.6 mph - N/A   Clear
1:53 AM 34.0 °F - 28.0 °F 79% 30.40 in 10.0 mi Calm Calm - N/A   Clear
2:53 AM 34.0 °F - 28.0 °F 79% 30.38 in 10.0 mi Calm Calm - N/A   Clear
3:53 AM 34.0 °F 28.8 °F 27.0 °F 75% 30.36 in 10.0 mi NE 5.8 mph - N/A   Clear
4:53 AM 35.1 °F - 27.0 °F 72% 30.36 in 10.0 mi Calm Calm - N/A   Clear
5:53 AM 33.1 °F - 26.1 °F 75% 30.37 in 10.0 mi Calm Calm - N/A   Clear
6:53 AM 28.9 °F - 26.1 °F 89% 30.38 in 10.0 mi Calm Calm - N/A   Clear
7:53 AM 28.9 °F - 26.1 °F 89% 30.38 in 10.0 mi Calm Calm - N/A   Clear
8:53 AM 34.0 °F - 30.0 °F 85% 30.38 in 10.0 mi Calm Calm - N/A   Clear
9:53 AM 45.0 °F - 28.0 °F 52% 30.37 in 10.0 mi Calm Calm - N/A   Clear
10:53 AM 50.0 °F - 27.0 °F 41% 30.35 in 10.0 mi Calm Calm - N/A   Clear
11:53 AM 54.0 °F - 27.0 °F 35% 30.34 in 10.0 mi Variable 6.9 mph - N/A   Clear
12:53 PM 55.9 °F - 27.0 °F 33% 30.31 in 10.0 mi SW 5.8 mph - N/A   Clear
1:53 PM 57.9 °F - 28.0 °F 32% 30.27 in 10.0 mi SSW 10.4 mph 20.7 mph N/A   Clear
2:53 PM 59.0 °F - 27.0 °F 29% 30.23 in 10.0 mi WSW 11.5 mph - N/A   Clear
3:53 PM 60.1 °F - 27.0 °F 28% 30.19 in 10.0 mi WSW 11.5 mph - N/A   Clear
4:53 PM 59.0 °F - 27.0 °F 29% 30.18 in 10.0 mi WSW 9.2 mph - N/A   Clear
5:53 PM 57.0 °F - 28.9 °F 34% 30.18 in 10.0 mi SW 9.2 mph - N/A   Clear
6:53 PM 52.0 °F - 30.0 °F 43% 30.19 in 10.0 mi SW 5.8 mph - N/A   Clear
7:53 PM 50.0 °F - 30.9 °F 48% 30.18 in 10.0 mi SW 4.6 mph - N/A   Clear
8:53 PM 46.9 °F - 33.1 °F 59% 30.17 in 10.0 mi SW 6.9 mph - N/A   Clear
9:53 PM 46.0 °F 43.1 °F 33.1 °F 61% 30.16 in 10.0 mi WSW 5.8 mph - N/A   Clear
10:53 PM 46.9 °F - 33.1 °F 59% 30.15 in 10.0 mi SW 6.9 mph - N/A   Clear
11:53 PM 46.0 °F 41.9 °F 35.1 °F 66% 30.14 in 10.0 mi SW 8.1 mph - N/A   Clear